QPF
0.00 0.00 0.00 0.00 0.00 0.00 0.00 0.00 0.00 0.00 0.00 0.01 0.02 0.01 0.00 0.00 0.01 0.02 0.05 0.03 0.02 0.02 0.03 0.02 0.02 0.02 0.03 0.04 0.05 0.07 0.08 0.03 0.02 0.02 0.01 0.02 0.05 0.12 0.10 0.12 0.18 0.12 0.10 0.08
0.00 0.00 0.00 0.00 0.00 0.00 0.00 0.00 0.00 0.01 0.02 0.04 0.02 0.01 0.00 0.00 0.00 0.01 0.03 0.02 0.01 0.02 0.02 0.02 0.01 0.03 0.07 0.06 0.05 0.04 0.03 0.02 0.01 0.02 0.01 0.01 0.02 0.05 0.08 0.11 0.08 0.06 0.07 0.08
0.00 0.00 0.00 0.00 0.00 0.00 0.00 0.00 0.00 0.01 0.03 0.04 0.02 0.00 0.00 0.01 0.01 0.01 0.02 0.02 0.02 0.02 0.02 0.02 0.01 0.02 0.03 0.04 0.04 0.03 0.02 0.01 0.01 0.02 0.02 0.01 0.01 0.02 0.03 0.03 0.04 0.05 0.06 0.06
0.00 0.00 0.01 0.00 0.00 0.00 0.00 0.00 0.00 0.00 0.01 0.02 0.01 0.00 0.00 0.00 0.01 0.02 0.03 0.05 0.06 0.05 0.02 0.02 0.02 0.01 0.02 0.02 0.01 0.01 0.01 0.02 0.01 0.02 0.02 0.01 0.02 0.02 0.03 0.03 0.04 0.04 0.04 0.04
0.00 0.01 0.01 0.00 0.00 0.00 0.00 0.00 0.00 0.01 0.01 0.05 0.03 0.00 0.00 0.00 0.01 0.02 0.04 0.06 0.08 0.05 0.02 0.01 0.01 0.01 0.01 0.02 0.01 0.02 0.02 0.02 0.02 0.01 0.01 0.01 0.01 0.02 0.04 0.04 0.04 0.05 0.05 0.05
0.01 0.01 0.02 0.02 0.01 0.00 0.00 0.01 0.00 0.00 0.01 0.03 0.02 0.02 0.03 0.01 0.01 0.01 0.04 0.06 0.08 0.03 0.01 0.00 0.00 0.01 0.02 0.03 0.03 0.04 0.03 0.03 0.02 0.02 0.01 0.01 0.02 0.03 0.04 0.04 0.04 0.05 0.05 0.04
0.00 0.01 0.02 0.01 0.02 0.01 0.01 0.02 0.01 0.00 0.00 0.01 0.01 0.02 0.05 0.03 0.03 0.03 0.05 0.07 0.07 0.03 0.01 0.01 0.01 0.02 0.04 0.05 0.05 0.05 0.04 0.03 0.02 0.02 0.02 0.01 0.01 0.02 0.03 0.03 0.04 0.03 0.04 0.04
0.01 0.01 0.02 0.01 0.01 0.02 0.03 0.01 0.01 0.00 0.00 0.00 0.01 0.00 0.02 0.03 0.03 0.05 0.06 0.07 0.05 0.02 0.01 0.01 0.02 0.04 0.04 0.04 0.05 0.07 0.05 0.03 0.03 0.02 0.01 0.02 0.02 0.02 0.02 0.03 0.03 0.03 0.04 0.04
0.01 0.02 0.01 0.00 0.01 0.01 0.02 0.01 0.00 0.00 0.01 0.01 0.01 0.00 0.01 0.01 0.02 0.04 0.07 0.07 0.05 0.04 0.04 0.03 0.03 0.03 0.03 0.03 0.03 0.03 0.02 0.02 0.02 0.02 0.02 0.02 0.03 0.03 0.02 0.03 0.03 0.04 0.04 0.04
0.01 0.01 0.00 0.00 0.01 0.00 0.01 0.02 0.01 0.00 0.02 0.02 0.01 0.01 0.01 0.01 0.02 0.03 0.04 0.05 0.06 0.07 0.09 0.08 0.04 0.03 0.03 0.02 0.02 0.02 0.02 0.02 0.02 0.02 0.02 0.02 0.03 0.03 0.04 0.04 0.05 0.05 0.05 0.05
0.03 0.01 0.01 0.01 0.01 0.00 0.00 0.00 0.00 0.00 0.01 0.01 0.01 0.01 0.01 0.01 0.02 0.02 0.03 0.04 0.05 0.06 0.08 0.12 0.12 0.08 0.04 0.03 0.02 0.02 0.03 0.02 0.02 0.01 0.02 0.03 0.03 0.02 0.02 0.03 0.03 0.04 0.04 0.05
0.05 0.03 0.01 0.00 0.00 0.00 0.01 0.00 0.00 0.00 0.01 0.01 0.01 0.01 0.01 0.01 0.01 0.01 0.02 0.03 0.04 0.04 0.03 0.04 0.06 0.06 0.04 0.03 0.03 0.02 0.02 0.02 0.01 0.01 0.01 0.02 0.02 0.02 0.02 0.03 0.04 0.04 0.06 0.06
0.03 0.03 0.02 0.01 0.00 0.00 0.00 0.01 0.02 0.01 0.01 0.00 0.00 0.00 0.01 0.01 0.01 0.01 0.01 0.02 0.03 0.05 0.04 0.03 0.03 0.03 0.02 0.03 0.03 0.02 0.01 0.01 0.01 0.01 0.01 0.01 0.01 0.01 0.01 0.02 0.03 0.03 0.03 0.05
0.02 0.01 0.01 0.01 0.02 0.01 0.01 0.03 0.04 0.03 0.01 0.00 0.00 0.01 0.01 0.01 0.01 0.02 0.02 0.03 0.03 0.04 0.04 0.04 0.06 0.06 0.03 0.03 0.03 0.02 0.01 0.00 0.00 0.00 0.00 0.00 0.00 0.00 0.00 0.01 0.01 0.01 0.02 0.03
0.04 0.02 0.01 0.01 0.00 0.00 0.00 0.01 0.02 0.04 0.05 0.01 0.01 0.01 0.02 0.01 0.01 0.02 0.03 0.03 0.03 0.02 0.03 0.03 0.05 0.11 0.12 0.07 0.04 0.02 0.01 0.01 0.01 0.00 0.00 0.00 0.00 0.00 0.00 0.00 0.00 0.00 0.01 0.01
0.03 0.03 0.02 0.01 0.00 0.00 0.00 0.00 0.00 0.01 0.05 0.05 0.02 0.02 0.02 0.02 0.02 0.02 0.01 0.02 0.03 0.03 0.03 0.03 0.03 0.05 0.08 0.10 0.05 0.03 0.02 0.02 0.02 0.01 0.01 0.01 0.01 0.01 0.01 0.01 0.01 0.01 0.01 0.01
0.03 0.04 0.03 0.02 0.01 0.00 0.00 0.00 0.02 0.02 0.05 0.07 0.03 0.02 0.02 0.02 0.02 0.02 0.01 0.02 0.02 0.02 0.03 0.03 0.04 0.04 0.03 0.06 0.05 0.02 0.01 0.02 0.02 0.01 0.01 0.01 0.01 0.01 0.02 0.03 0.03 0.03 0.02 0.01
0.01 0.01 0.01 0.01 0.01 0.01 0.01 0.01 0.02 0.04 0.05 0.06 0.03 0.02 0.02 0.02 0.02 0.02 0.02 0.02 0.02 0.02 0.02 0.02 0.02 0.02 0.02 0.02 0.03 0.02 0.01 0.01 0.01 0.01 0.01 0.01 0.02 0.03 0.04 0.05 0.04 0.03 0.02 0.03
0.01 0.01 0.01 0.01 0.01 0.01 0.02 0.02 0.02 0.04 0.06 0.05 0.03 0.02 0.02 0.03 0.02 0.02 0.02 0.03 0.04 0.04 0.03 0.03 0.01 0.01 0.01 0.01 0.01 0.01 0.01 0.01 0.00 0.01 0.01 0.03 0.04 0.04 0.04 0.04 0.03 0.03 0.02 0.02
0.01 0.02 0.01 0.01 0.01 0.02 0.03 0.03 0.03 0.04 0.05 0.03 0.02 0.02 0.03 0.02 0.02 0.02 0.02 0.03 0.03 0.03 0.04 0.03 0.02 0.01 0.01 0.01 0.01 0.01 0.01 0.01 0.01 0.02 0.03 0.04 0.04 0.04 0.04 0.03 0.03 0.02 0.01 0.01
0.02 0.02 0.02 0.02 0.02 0.02 0.04 0.05 0.05 0.04 0.05 0.07 0.05 0.04 0.04 0.03 0.03 0.03 0.04 0.05 0.04 0.03 0.02 0.02 0.02 0.01 0.01 0.01 0.01 0.01 0.01 0.01 0.02 0.02 0.03 0.04 0.04 0.03 0.03 0.03 0.03 0.02 0.01 0.02
0.02 0.03 0.03 0.03 0.03 0.04 0.04 0.07 0.09 0.07 0.06 0.09 0.09 0.07 0.05 0.04 0.04 0.05 0.06 0.07 0.06 0.05 0.03 0.02 0.02 0.02 0.02 0.01 0.01 0.01 0.01 0.02 0.02 0.02 0.02 0.03 0.03 0.02 0.02 0.02 0.02 0.02 0.02 0.03
0.03 0.03 0.03 0.04 0.05 0.06 0.05 0.07 0.10 0.09 0.06 0.06 0.10 0.10 0.07 0.06 0.05 0.04 0.05 0.05 0.04 0.04 0.03 0.03 0.03 0.02 0.02 0.02 0.01 0.02 0.02 0.02 0.02 0.02 0.02 0.02 0.01 0.01 0.01 0.01 0.02 0.02 0.02 0.03
0.04 0.04 0.03 0.04 0.06 0.07 0.05 0.05 0.06 0.08 0.07 0.07 0.09 0.11 0.10 0.09 0.07 0.04 0.03 0.03 0.03 0.03 0.03 0.03 0.03 0.02 0.02 0.02 0.02 0.02 0.02 0.02 0.02 0.02 0.01 0.01 0.01 0.00 0.01 0.02 0.02 0.03 0.03 0.04
0.06 0.05 0.04 0.05 0.07 0.08 0.07 0.06 0.06 0.06 0.06 0.05 0.05 0.06 0.07 0.09 0.08 0.06 0.05 0.04 0.03 0.03 0.03 0.03 0.03 0.02 0.02 0.02 0.02 0.02 0.01 0.01 0.01 0.01 0.01 0.01 0.00 0.01 0.01 0.02 0.03 0.03 0.03 0.03
0.07 0.06 0.06 0.07 0.08 0.08 0.08 0.08 0.06 0.05 0.05 0.04 0.03 0.03 0.04 0.06 0.08 0.08 0.07 0.05 0.04 0.03 0.03 0.03 0.03 0.02 0.02 0.02 0.02 0.02 0.01 0.01 0.01 0.01 0.01 0.01 0.01 0.02 0.04 0.04 0.04 0.04 0.05 0.04
0.06 0.06 0.07 0.09 0.11 0.10 0.10 0.11 0.08 0.06 0.05 0.05 0.05 0.05 0.04 0.05 0.07 0.08 0.06 0.05 0.05 0.04 0.04 0.04 0.03 0.03 0.02 0.02 0.01 0.01 0.01 0.01 0.02 0.02 0.03 0.03 0.03 0.03 0.04 0.05 0.04 0.03 0.04 0.04
MSLP
1009.71 1009.51 1009.31 1009.14 1009.03 1008.98 1008.95 1008.90 1008.76 1008.49 1008.06 1007.48 1006.81 1006.13 1005.55 1005.16 1005.05 1005.26 1005.81 1006.64 1007.69 1008.84 1009.98 1011.02 1011.89 1012.56 1013.03 1013.33 1013.53 1013.68 1013.82 1013.98 1014.18 1014.39 1014.58 1014.71 1014.74 1014.67 1014.49 1014.23 1013.94 1013.66 1013.44 1013.35
1009.98 1009.74 1009.44 1009.14 1008.89 1008.70 1008.56 1008.41 1008.23 1007.96 1007.58 1007.08 1006.50 1005.90 1005.37 1005.01 1004.88 1005.06 1005.54 1006.32 1007.33 1008.47 1009.64 1010.75 1011.73 1012.52 1013.12 1013.54 1013.82 1014.03 1014.20 1014.38 1014.58 1014.79 1015.00 1015.18 1015.30 1015.33 1015.27 1015.13 1014.95 1014.76 1014.61 1014.53
1010.19 1009.92 1009.57 1009.19 1008.85 1008.56 1008.33 1008.13 1007.93 1007.67 1007.33 1006.89 1006.38 1005.83 1005.33 1004.96 1004.79 1004.89 1005.29 1005.97 1006.91 1008.01 1009.18 1010.34 1011.40 1012.30 1013.02 1013.56 1013.95 1014.23 1014.45 1014.66 1014.87 1015.10 1015.34 1015.57 1015.77 1015.91 1015.97 1015.96 1015.90 1015.81 1015.73 1015.69
1010.31 1010.03 1009.66 1009.25 1008.86 1008.52 1008.26 1008.04 1007.84 1007.61 1007.32 1006.94 1006.48 1005.97 1005.48 1005.09 1004.86 1004.87 1005.15 1005.72 1006.55 1007.58 1008.72 1009.89 1011.00 1011.98 1012.80 1013.44 1013.93 1014.28 1014.56 1014.80 1015.04 1015.29 1015.56 1015.84 1016.11 1016.34 1016.52 1016.63 1016.69 1016.71 1016.71 1016.71
1010.31 1010.04 1009.67 1009.26 1008.87 1008.54 1008.27 1008.07 1007.91 1007.73 1007.50 1007.18 1006.79 1006.33 1005.85 1005.44 1005.15 1005.07 1005.24 1005.68 1006.39 1007.32 1008.39 1009.52 1010.63 1011.66 1012.54 1013.25 1013.81 1014.23 1014.55 1014.83 1015.09 1015.36 1015.66 1015.98 1016.30 1016.61 1016.89 1017.12 1017.28 1017.40 1017.47 1017.53
1010.19 1009.93 1009.59 1009.20 1008.84 1008.54 1008.32 1008.17 1008.06 1007.95 1007.79 1007.56 1007.24 1006.84 1006.40 1005.99 1005.68 1005.52 1005.59 1005.92 1006.50 1007.30 1008.27 1009.33 1010.40 1011.41 1012.31 1013.06 1013.65 1014.11 1014.47 1014.77 1015.04 1015.33 1015.64 1016.00 1016.37 1016.74 1017.10 1017.42 1017.68 1017.88 1018.03 1018.14
1009.96 1009.71 1009.39 1009.05 1008.74 1008.50 1008.33 1008.25 1008.21 1008.18 1008.12 1007.98 1007.76 1007.44 1007.07 1006.70 1006.38 1006.20 1006.19 1006.42 1006.88 1007.55 1008.40 1009.36 1010.34 1011.30 1012.17 1012.91 1013.51 1013.98 1014.35 1014.66 1014.94 1015.24 1015.57 1015.94 1016.34 1016.77 1017.19 1017.57 1017.91 1018.19 1018.41 1018.58
1009.65 1009.41 1009.12 1008.82 1008.57 1008.38 1008.28 1008.26 1008.30 1008.36 1008.39 1008.36 1008.24 1008.04 1007.76 1007.46 1007.19 1007.01 1006.97 1007.12 1007.49 1008.04 1008.77 1009.60 1010.48 1011.34 1012.14 1012.84 1013.41 1013.87 1014.23 1014.54 1014.83 1015.13 1015.47 1015.85 1016.28 1016.74 1017.20 1017.65 1018.05 1018.40 1018.69 1018.91
1009.30 1009.06 1008.80 1008.54 1008.34 1008.20 1008.16 1008.20 1008.30 1008.43 1008.55 1008.62 1008.61 1008.53 1008.37 1008.17 1007.97 1007.84 1007.81 1007.93 1008.22 1008.68 1009.28 1009.99 1010.75 1011.51 1012.22 1012.84 1013.37 1013.79 1014.14 1014.44 1014.73 1015.02 1015.37 1015.76 1016.20 1016.69 1017.19 1017.68 1018.14 1018.56 1018.91 1019.19
1008.96 1008.73 1008.48 1008.26 1008.09 1008.00 1007.99 1008.06 1008.21 1008.39 1008.57 1008.72 1008.82 1008.85 1008.81 1008.73 1008.63 1008.57 1008.58 1008.71 1008.96 1009.35 1009.86 1010.45 1011.09 1011.74 1012.35 1012.90 1013.36 1013.75 1014.08 1014.36 1014.64 1014.94 1015.28 1015.69 1016.14 1016.65 1017.18 1017.71 1018.22 1018.69 1019.10 1019.45
1008.67 1008.44 1008.22 1008.02 1007.88 1007.80 1007.80 1007.89 1008.04 1008.24 1008.46 1008.67 1008.84 1008.97 1009.04 1009.07 1009.09 1009.12 1009.19 1009.35 1009.59 1009.94 1010.37 1010.88 1011.42 1011.97 1012.49 1012.97 1013.38 1013.73 1014.03 1014.30 1014.58 1014.87 1015.22 1015.63 1016.09 1016.61 1017.17 1017.73 1018.29 1018.81 1019.28 1019.69
1008.44 1008.24 1008.04 1007.86 1007.73 1007.66 1007.65 1007.72 1007.86 1008.05 1008.27 1008.50 1008.72 1008.91 1009.07 1009.20 1009.31 1009.43 1009.58 1009.77 1010.03 1010.36 1010.76 1011.20 1011.67 1012.14 1012.60 1013.01 1013.38 1013.70 1013.98 1014.25 1014.52 1014.82 1015.16 1015.57 1016.04 1016.57 1017.14 1017.73 1018.32 1018.88 1019.40 1019.87
1008.27 1008.09 1007.92 1007.78 1007.66 1007.58 1007.56 1007.60 1007.70 1007.86 1008.05 1008.27 1008.51 1008.73 1008.95 1009.15 1009.34 1009.53 1009.74 1009.98 1010.26 1010.60 1010.97 1011.37 1011.80 1012.23 1012.64 1013.02 1013.36 1013.66 1013.93 1014.20 1014.46 1014.76 1015.10 1015.50 1015.97 1016.49 1017.06 1017.66 1018.27 1018.87 1019.43 1019.94
1008.11 1007.98 1007.86 1007.75 1007.65 1007.57 1007.54 1007.55 1007.61 1007.72 1007.87 1008.07 1008.29 1008.52 1008.75 1008.99 1009.23 1009.47 1009.72 1010.00 1010.31 1010.65 1011.01 1011.41 1011.81 1012.21 1012.60 1012.97 1013.30 1013.60 1013.87 1014.14 1014.40 1014.69 1015.02 1015.41 1015.85 1016.36 1016.92 1017.51 1018.13 1018.74 1019.33 1019.87
1007.94 1007.88 1007.81 1007.74 1007.67 1007.61 1007.58 1007.57 1007.60 1007.67 1007.78 1007.94 1008.12 1008.34 1008.57 1008.81 1009.06 1009.32 1009.60 1009.89 1010.21 1010.55 1010.92 1011.31 1011.71 1012.11 1012.50 1012.86 1013.20 1013.51 1013.79 1014.06 1014.33 1014.61 1014.92 1015.28 1015.69 1016.16 1016.69 1017.27 1017.87 1018.48 1019.07 1019.62
1007.74 1007.74 1007.73 1007.72 1007.70 1007.67 1007.65 1007.64 1007.66 1007.71 1007.79 1007.91 1008.06 1008.24 1008.44 1008.66 1008.90 1009.15 1009.42 1009.70 1010.01 1010.35 1010.71 1011.10 1011.50 1011.91 1012.31 1012.70 1013.06 1013.39 1013.69 1013.97 1014.23 1014.50 1014.78 1015.11 1015.48 1015.91 1016.39 1016.93 1017.50 1018.09 1018.67 1019.22
1007.48 1007.55 1007.61 1007.66 1007.69 1007.71 1007.73 1007.74 1007.77 1007.81 1007.87 1007.97 1008.09 1008.23 1008.40 1008.58 1008.77 1008.98 1009.22 1009.47 1009.75 1010.07 1010.42 1010.80 1011.21 1011.63 1012.05 1012.46 1012.85 1013.21 1013.54 1013.83 1014.10 1014.36 1014.62 1014.91 1015.23 1015.61 1016.04 1016.52 1017.05 1017.60 1018.16 1018.70
1007.19 1007.31 1007.43 1007.54 1007.64 1007.71 1007.77 1007.82 1007.87 1007.93 1007.99 1008.07 1008.17 1008.27 1008.39 1008.52 1008.66 1008.81 1008.99 1009.19 1009.43 1009.71 1010.03 1010.40 1010.80 1011.23 1011.68 1012.13 1012.55 1012.95 1013.31 1013.62 1013.91 1014.16 1014.41 1014.67 1014.95 1015.27 1015.65 1016.07 1016.55 1017.06 1017.58 1018.10
1006.89 1007.05 1007.22 1007.38 1007.52 1007.65 1007.75 1007.84 1007.92 1008.00 1008.08 1008.15 1008.22 1008.29 1008.36 1008.43 1008.51 1008.59 1008.69 1008.83 1009.00 1009.23 1009.52 1009.86 1010.26 1010.71 1011.18 1011.66 1012.13 1012.57 1012.97 1013.32 1013.63 1013.90 1014.14 1014.38 1014.63 1014.92 1015.24 1015.62 1016.04 1016.51 1017.00 1017.49
1006.61 1006.80 1006.99 1007.18 1007.36 1007.51 1007.65 1007.77 1007.88 1007.97 1008.05 1008.12 1008.17 1008.21 1008.23 1008.24 1008.25 1008.25 1008.28 1008.34 1008.45 1008.62 1008.87 1009.18 1009.57 1010.02 1010.52 1011.03 1011.55 1012.04 1012.49 1012.90 1013.24 1013.54 1013.81 1014.05 1014.29 1014.55 1014.85 1015.19 1015.58 1016.00 1016.46 1016.93
1006.38 1006.58 1006.78 1006.97 1007.15 1007.31 1007.46 1007.59 1007.70 1007.80 1007.87 1007.93 1007.95 1007.96 1007.93 1007.88 1007.82 1007.76 1007.71 1007.70 1007.74 1007.86 1008.06 1008.35 1008.73 1009.19 1009.70 1010.25 1010.82 1011.36 1011.88 1012.34 1012.74 1013.09 1013.39 1013.66 1013.92 1014.18 1014.47 1014.79 1015.16 1015.56 1015.99 1016.44
1006.21 1006.40 1006.58 1006.76 1006.91 1007.05 1007.18 1007.29 1007.38 1007.45 1007.51 1007.53 1007.53 1007.50 1007.42 1007.33 1007.21 1007.08 1006.98 1006.91 1006.90 1006.97 1007.13 1007.40 1007.77 1008.23 1008.76 1009.35 1009.96 1010.56 1011.13 1011.66 1012.13 1012.54 1012.90 1013.22 1013.51 1013.80 1014.11 1014.43 1014.80 1015.19 1015.60 1016.04
1006.10 1006.26 1006.41 1006.54 1006.65 1006.74 1006.81 1006.87 1006.91 1006.95 1006.96 1006.95 1006.90 1006.83 1006.72 1006.58 1006.42 1006.25 1006.10 1005.99 1005.95 1005.99 1006.13 1006.38 1006.74 1007.21 1007.76 1008.37 1009.02 1009.67 1010.30 1010.89 1011.43 1011.91 1012.34 1012.72 1013.07 1013.41 1013.75 1014.10 1014.47 1014.87 1015.28 1015.71
1006.00 1006.13 1006.23 1006.31 1006.35 1006.36 1006.36 1006.35 1006.33 1006.30 1006.26 1006.20 1006.11 1006.00 1005.85 1005.68 1005.50 1005.31 1005.14 1005.02 1004.96 1004.99 1005.12 1005.37 1005.73 1006.20 1006.76 1007.40 1008.07 1008.76 1009.44 1010.08 1010.68 1011.23 1011.73 1012.18 1012.59 1012.99 1013.38 1013.77 1014.17 1014.58 1015.00 1015.42
1005.89 1005.99 1006.04 1006.04 1006.01 1005.94 1005.85 1005.76 1005.66 1005.55 1005.45 1005.33 1005.21 1005.06 1004.90 1004.71 1004.52 1004.34 1004.18 1004.06 1004.01 1004.05 1004.19 1004.44 1004.81 1005.29 1005.86 1006.50 1007.19 1007.90 1008.60 1009.29 1009.93 1010.53 1011.09 1011.60 1012.08 1012.53 1012.97 1013.41 1013.85 1014.28 1014.72 1015.14
1005.74 1005.80 1005.80 1005.73 1005.61 1005.46 1005.29 1005.11 1004.93 1004.75 1004.59 1004.42 1004.26 1004.09 1003.92 1003.74 1003.57 1003.40 1003.27 1003.18 1003.17 1003.23 1003.40 1003.67 1004.05 1004.53 1005.09 1005.74 1006.42 1007.13 1007.85 1008.55 1009.22 1009.85 1010.44 1011.00 1011.53 1012.04 1012.53 1013.01 1013.49 1013.95 1014.40 1014.84
1005.52 1005.55 1005.49 1005.36 1005.17 1004.94 1004.69 1004.43 1004.18 1003.94 1003.72 1003.52 1003.33 1003.15 1002.99 1002.83 1002.68 1002.56 1002.48 1002.44 1002.47 1002.58 1002.78 1003.08 1003.47 1003.96 1004.52 1005.15 1005.82 1006.51 1007.21 1007.90 1008.57 1009.21 1009.82 1010.40 1010.96 1011.51 1012.04 1012.56 1013.07 1013.56 1014.04 1014.48
Thickness
5786 5800 5804 5801 5801 5805 5804 5806 5800 5806 5810 5813 5821 5822 5827 5825 5822 5821 5819 5818 5816 5814 5812 5810 5808 5806 5804 5802 5800 5797 5792 5787 5784 5782 5780 5777 5774 5772 5770 5768 5766 5763 5761 5760
5771 5789 5797 5796 5801 5805 5806 5809 5807 5809 5807 5823 5825 5822 5819 5818 5816 5812 5811 5812 5812 5810 5806 5804 5802 5801 5799 5796 5795 5792 5787 5783 5781 5779 5776 5774 5771 5769 5766 5763 5761 5759 5757 5755
5754 5777 5780 5773 5794 5799 5803 5811 5808 5796 5801 5812 5810 5810 5808 5808 5806 5804 5805 5807 5804 5803 5801 5799 5798 5796 5793 5792 5790 5786 5782 5779 5777 5775 5772 5769 5768 5764 5761 5758 5756 5753 5752 5749
5747 5754 5739 5776 5808 5807 5802 5804 5810 5808 5807 5806 5806 5807 5808 5809 5804 5801 5801 5800 5798 5796 5794 5794 5793 5792 5789 5787 5784 5780 5777 5774 5771 5769 5766 5764 5761 5758 5756 5753 5751 5749 5746 5744
5738 5737 5748 5774 5792 5794 5785 5784 5802 5799 5800 5800 5801 5797 5795 5802 5803 5801 5798 5797 5793 5790 5789 5788 5787 5786 5783 5780 5777 5773 5769 5767 5765 5763 5759 5756 5754 5752 5750 5748 5745 5743 5741 5739
5730 5725 5728 5759 5788 5800 5788 5768 5792 5794 5791 5789 5787 5774 5775 5789 5793 5793 5792 5791 5787 5785 5784 5780 5779 5779 5775 5771 5768 5765 5763 5761 5760 5757 5754 5750 5748 5746 5744 5742 5739 5738 5735 5733
5723 5724 5740 5767 5783 5785 5754 5756 5782 5787 5786 5783 5777 5775 5778 5784 5782 5782 5782 5781 5779 5776 5774 5772 5772 5770 5765 5762 5759 5758 5757 5754 5752 5750 5748 5745 5743 5741 5738 5735 5733 5730 5728 5726
5720 5716 5727 5765 5771 5759 5755 5771 5776 5778 5778 5774 5773 5774 5773 5772 5771 5771 5770 5769 5769 5766 5763 5763 5762 5759 5754 5752 5752 5752 5749 5746 5743 5742 5742 5739 5736 5734 5732 5729 5726 5723 5721 5719
5723 5726 5746 5760 5758 5761 5765 5764 5767 5769 5769 5767 5764 5763 5762 5762 5761 5761 5760 5758 5759 5757 5754 5753 5752 5750 5746 5745 5745 5743 5740 5737 5735 5734 5733 5731 5729 5726 5724 5722 5720 5717 5715 5712
5720 5727 5740 5748 5752 5756 5759 5758 5760 5762 5761 5758 5753 5753 5753 5752 5751 5751 5750 5750 5750 5747 5744 5741 5742 5741 5740 5739 5738 5735 5732 5729 5727 5726 5724 5722 5720 5719 5717 5714 5712 5710 5708 5705
5709 5718 5726 5733 5739 5745 5748 5751 5752 5752 5752 5750 5747 5745 5743 5742 5742 5742 5742 5741 5739 5737 5734 5733 5733 5730 5732 5731 5730 5727 5724 5722 5720 5719 5716 5712 5709 5706 5707 5702 5701 5701 5700 5699
5698 5710 5715 5720 5731 5736 5735 5736 5739 5739 5739 5741 5741 5737 5736 5734 5734 5734 5733 5733 5731 5729 5727 5725 5723 5722 5724 5724 5722 5719 5716 5715 5715 5713 5710 5706 5702 5697 5693 5692 5691 5690 5690 5689
5704 5710 5713 5717 5723 5726 5725 5726 5728 5729 5729 5730 5731 5730 5727 5725 5725 5725 5724 5723 5722 5721 5720 5719 5717 5715 5716 5715 5714 5711 5710 5709 5708 5706 5703 5701 5698 5694 5688 5683 5681 5680 5680 5679
5698 5698 5697 5703 5708 5713 5716 5717 5719 5719 5720 5721 5721 5720 5718 5716 5715 5714 5714 5715 5714 5713 5712 5711 5709 5708 5708 5707 5706 5704 5703 5701 5701 5699 5698 5696 5693 5690 5687 5683 5679 5675 5671 5669
5686 5689 5691 5696 5700 5702 5704 5705 5704 5704 5707 5709 5710 5709 5707 5705 5704 5705 5706 5707 5706 5704 5703 5702 5701 5700 5700 5698 5696 5695 5695 5694 5694 5693 5692 5690 5688 5685 5682 5679 5676 5672 5667 5662
5676 5680 5683 5683 5686 5690 5693 5693 5693 5694 5696 5696 5697 5697 5697 5697 5696 5697 5697 5697 5695 5694 5693 5693 5691 5692 5692 5690 5689 5687 5686 5684 5684 5685 5684 5683 5681 5679 5676 5673 5671 5668 5664 5659
5665 5665 5667 5670 5674 5677 5681 5684 5684 5685 5686 5685 5685 5687 5687 5687 5686 5686 5687 5687 5686 5685 5685 5685 5684 5684 5684 5683 5683 5682 5681 5678 5676 5676 5675 5675 5673 5671 5669 5667 5665 5662 5659 5656
5661 5662 5663 5664 5665 5668 5671 5674 5675 5676 5676 5677 5676 5677 5676 5676 5676 5676 5677 5678 5677 5676 5676 5676 5677 5676 5676 5676 5674 5674 5673 5671 5670 5669 5668 5667 5666 5665 5663 5660 5658 5656 5652 5649
5653 5654 5656 5658 5659 5659 5661 5663 5665 5666 5667 5667 5666 5666 5667 5667 5667 5667 5667 5667 5665 5664 5666 5667 5666 5666 5666 5666 5665 5665 5665 5664 5662 5661 5660 5657 5656 5657 5655 5653 5651 5649 5647 5643
5644 5645 5647 5649 5651 5651 5651 5654 5656 5657 5657 5658 5657 5657 5657 5657 5658 5658 5657 5657 5658 5659 5659 5658 5657 5658 5658 5658 5657 5658 5658 5657 5655 5654 5653 5651 5650 5649 5648 5646 5644 5643 5640 5637
5633 5635 5637 5639 5641 5643 5644 5645 5646 5646 5648 5649 5648 5647 5648 5648 5649 5649 5648 5649 5651 5651 5650 5648 5649 5651 5651 5650 5649 5651 5651 5649 5648 5646 5645 5644 5643 5642 5641 5639 5637 5635 5633 5631
5624 5626 5628 5630 5632 5633 5635 5636 5637 5637 5638 5639 5640 5641 5640 5640 5641 5641 5642 5642 5642 5641 5642 5643 5643 5642 5641 5640 5642 5643 5643 5642 5641 5640 5639 5637 5635 5634 5633 5631 5630 5628 5626 5624
5616 5617 5619 5621 5622 5624 5626 5628 5629 5630 5630 5631 5632 5633 5632 5632 5633 5633 5632 5634 5635 5633 5635 5636 5634 5632 5631 5632 5634 5635 5635 5634 5633 5633 5632 5631 5629 5628 5626 5625 5623 5622 5619 5617
5608 5610 5611 5614 5615 5616 5617 5620 5622 5623 5623 5624 5625 5626 5625 5624 5624 5627 5627 5626 5626 5625 5627 5625 5623 5623 5621 5625 5626 5627 5627 5626 5626 5626 5625 5624 5624 5623 5621 5619 5617 5614 5611 5608
5601 5603 5605 5606 5607 5609 5610 5612 5614 5615 5615 5616 5617 5618 5619 5619 5618 5620 5620 5619 5618 5618 5619 5617 5616 5615 5616 5618 5620 5620 5620 5620 5619 5619 5619 5618 5618 5617 5615 5613 5610 5607 5603 5600
5596 5597 5599 5600 5602 5603 5605 5606 5607 5608 5609 5610 5611 5612 5613 5613 5613 5614 5613 5613 5614 5613 5614 5613 5611 5609 5611 5612 5613 5613 5613 5612 5613 5613 5614 5613 5612 5610 5608 5605 5601 5598 5594 5591
5591 5593 5593 5595 5597 5599 5599 5600 5602 5604 5605 5605 5606 5607 5607 5608 5608 5608 5608 5608 5609 5609 5610 5610 5610 5609 5609 5608 5608 5607 5607 5607 5607 5607 5608 5606 5605 5602 5600 5596 5592 5589 5586 5582